When you browse on this site, cookies collect data to enhance your experience and personalize the content and advertising you see.
Visit our Privacy Policy to learn more. By continuing to use the site, you agree to this use of cookies and data.
  • In Österreich
  • Länderverzeichnis
  • Für 7 Tage
  • Wassertemperatur
  • Wetterkarte
  • News
  • Widgets
  • user-avatar
    Anmelden

    Stündliche Wetter Tynda

    Heute, 3 April, Freitag

    Zeit Temperatur Niederschläge Wind Luftdruck Luftfeuchtigkeit
    00:00 -16°C° 0 mm 2 m/S 707 mmHg 86%
    01:00 -17°C° 0 mm 2 m/S 707 mmHg 85%
    02:00 -18°C° 0 mm 2 m/S 708 mmHg 84%
    03:00 -18°C° 0 mm 2 m/S 708 mmHg 85%
    04:00 -19°C° 0 mm 2 m/S 709 mmHg 85%
    05:00 -20°C° 0 mm 2 m/S 709 mmHg 86%
    06:00 -19°C° 0 mm 3 m/S 710 mmHg 83%
    07:00 -17°C° 0 mm 3 m/S 710 mmHg 80%
    08:00 -15°C° 0 mm 4 m/S 711 mmHg 78%
    09:00 -14°C° 0 mm 5 m/S 711 mmHg 74%
    10:00 -13°C° 0 mm 5 m/S 712 mmHg 70%
    11:00 -11°C° 0 mm 6 m/S 713 mmHg 66%
    12:00 -11°C° 0 mm 6 m/S 713 mmHg 66%
    13:00 -10°C° 0 mm 6 m/S 713 mmHg 66%
    14:00 -10°C° 0 mm 6 m/S 713 mmHg 66%
    15:00 -10°C° 0 mm 5 m/S 714 mmHg 69%
    16:00 -10°C° 0 mm 4 m/S 714 mmHg 72%
    17:00 -9°C° 0 mm 3 m/S 714 mmHg 76%
    18:00 -12°C° 0 mm 3 m/S 714 mmHg 78%
    19:00 -13°C° 0 mm 2 m/S 715 mmHg 80%
    20:00 -15°C° 0 mm 2 m/S 715 mmHg 83%
    21:00 -16°C° 0 mm 2 m/S 715 mmHg 84%
    22:00 -16°C° 0 mm 2 m/S 715 mmHg 85%
    23:00 -17°C° 0 mm 2 m/S 715 mmHg 86%

    Morgen, 4 April, Samstag

    Zeit Temperatur Niederschläge Wind Luftdruck Luftfeuchtigkeit
    00:00 -16°C° 0 mm 1 m/S 715 mmHg 87%
    01:00 -16°C° 0 mm 1 m/S 715 mmHg 89%
    02:00 -17°C° 0 mm 1 m/S 715 mmHg 90%
    03:00 -18°C° 0 mm 1 m/S 715 mmHg 91%
    04:00 -18°C° 0 mm 1 m/S 715 mmHg 92%
    05:00 -19°C° 0 mm 1 m/S 715 mmHg 94%
    06:00 -16°C° 0 mm 0 m/S 715 mmHg 90%
    07:00 -14°C° 0 mm 0 m/S 715 mmHg 87%
    08:00 -11°C° 0 mm 0 m/S 715 mmHg 83%
    09:00 -9°C° 0 mm 0 m/S 715 mmHg 80%
    10:00 -7°C° 0 mm 0 m/S 714 mmHg 77%
    11:00 -5°C° 0 mm 0 m/S 714 mmHg 75%
    12:00 -3°C° 0 mm 1 m/S 714 mmHg 72%
    13:00 -2°C° 0 mm 1 m/S 713 mmHg 69%
    14:00 -1°C° 0 mm 1 m/S 713 mmHg 67%
    15:00 -3°C° 0 mm 2 m/S 712 mmHg 71%
    16:00 -3°C° 0 mm 2 m/S 712 mmHg 76%
    17:00 -3°C° 0 mm 2 m/S 712 mmHg 80%
    18:00 -5°C° 0 mm 2 m/S 711 mmHg 82%
    19:00 -7°C° 0 mm 1 m/S 711 mmHg 84%
    20:00 -9°C° 0 mm 1 m/S 711 mmHg 86%
    21:00 -9°C° 0 mm 1 m/S 711 mmHg 87%
    22:00 -9°C° 0 mm 1 m/S 711 mmHg 88%
    23:00 -9°C° 0 mm 1 m/S 711 mmHg 89%

    übermorgen, 5 April, Sonntag

    Zeit Temperatur Niederschläge Wind Luftdruck Luftfeuchtigkeit
    00:00 -9°C° 0 mm 1 m/S 711 mmHg 90%
    01:00 -9°C° 0 mm 1 m/S 710 mmHg 91%
    02:00 -9°C° 0 mm 0 m/S 710 mmHg 91%
    03:00 -8°C° 0.1 mm 0 m/S 711 mmHg 93%
    04:00 -8°C° 0.1 mm 0 m/S 711 mmHg 94%
    05:00 -8°C° 0.1 mm 0 m/S 711 mmHg 96%
    06:00 -7°C° 0.2 mm 1 m/S 711 mmHg 94%
    07:00 -4°C° 0.2 mm 1 m/S 712 mmHg 93%
    08:00 -3°C° 0.2 mm 1 m/S 712 mmHg 91%
    09:00 -4°C° 0.1 mm 2 m/S 712 mmHg 88%
    10:00 -4°C° 0.1 mm 3 m/S 712 mmHg 85%
    11:00 -3°C° 0.1 mm 4 m/S 712 mmHg 82%
    12:00 -3°C° 0.2 mm 4 m/S 712 mmHg 79%
    13:00 -4°C° 0.2 mm 5 m/S 712 mmHg 75%
    14:00 -4°C° 0.2 mm 5 m/S 712 mmHg 72%
    15:00 -4°C° 0 mm 4 m/S 712 mmHg 73%
    16:00 -5°C° 0 mm 4 m/S 713 mmHg 74%
    17:00 -5°C° 0 mm 4 m/S 713 mmHg 76%
    18:00 -8°C° 0 mm 3 m/S 713 mmHg 78%
    19:00 -9°C° 0 mm 2 m/S 713 mmHg 80%
    20:00 -13°C° 0 mm 2 m/S 713 mmHg 82%
    21:00 -13°C° 0 mm 2 m/S 713 mmHg 82%
    22:00 -14°C° 0 mm 2 m/S 713 mmHg 83%
    23:00 -13°C° 0 mm 1 m/S 713 mmHg 83%

    6 April, Montag

    Zeit Temperatur Niederschläge Wind Luftdruck Luftfeuchtigkeit
    00:00 -13°C° 0 mm 1 m/S 713 mmHg 85%
    01:00 -16°C° 0 mm 2 m/S 713 mmHg 86%
    02:00 -16°C° 0 mm 2 m/S 713 mmHg 88%
    03:00 -16°C° 0 mm 2 m/S 713 mmHg 89%
    04:00 -17°C° 0 mm 2 m/S 713 mmHg 90%
    05:00 -17°C° 0 mm 2 m/S 713 mmHg 92%
    06:00 -15°C° 0 mm 2 m/S 714 mmHg 90%
    07:00 -13°C° 0 mm 2 m/S 714 mmHg 89%
    08:00 -10°C° 0 mm 2 m/S 714 mmHg 87%
    09:00 -9°C° 0 mm 3 m/S 714 mmHg 85%
    10:00 -8°C° 0 mm 4 m/S 714 mmHg 83%
    11:00 -5°C° 0 mm 4 m/S 714 mmHg 81%
    12:00 -4°C° 0.1 mm 4 m/S 714 mmHg 81%
    13:00 -3°C° 0.1 mm 4 m/S 714 mmHg 81%
    14:00 -3°C° 0.1 mm 4 m/S 714 mmHg 80%
    15:00 -2°C° 0.1 mm 3 m/S 714 mmHg 81%
    16:00 -2°C° 0.1 mm 3 m/S 714 mmHg 81%
    17:00 -2°C° 0.1 mm 2 m/S 714 mmHg 81%
    18:00 -4°C° 0 mm 2 m/S 714 mmHg 82%
    19:00 -5°C° 0 mm 2 m/S 714 mmHg 83%
    20:00 -7°C° 0 mm 2 m/S 715 mmHg 84%
    21:00 -8°C° 0 mm 2 m/S 715 mmHg 85%
    22:00 -9°C° 0 mm 2 m/S 715 mmHg 86%
    23:00 -9°C° 0 mm 2 m/S 715 mmHg 87%

    7 April, Dienstag

    Zeit Temperatur Niederschläge Wind Luftdruck Luftfeuchtigkeit
    00:00 -10°C° 0 mm 2 m/S 715 mmHg 87%
    01:00 -10°C° 0 mm 2 m/S 715 mmHg 88%
    02:00 -12°C° 0 mm 2 m/S 715 mmHg 89%
    03:00 -12°C° 0 mm 2 m/S 715 mmHg 90%
    04:00 -12°C° 0 mm 2 m/S 715 mmHg 90%
    05:00 -13°C° 0 mm 2 m/S 715 mmHg 91%
    06:00 -10°C° 0 mm 2 m/S 716 mmHg 90%
    07:00 -8°C° 0 mm 2 m/S 716 mmHg 88%
    08:00 -6°C° 0 mm 2 m/S 716 mmHg 87%
    09:00 -5°C° 0 mm 2 m/S 716 mmHg 87%
    10:00 -3°C° 0 mm 2 m/S 716 mmHg 88%
    11:00 -2°C° 0 mm 2 m/S 715 mmHg 88%
    12:00 -2°C° 0 mm 3 m/S 715 mmHg 89%
    13:00 -1°C° 0 mm 3 m/S 715 mmHg 89%
    14:00 -2°C° 0 mm 4 m/S 715 mmHg 89%
    15:00 -2°C° 0 mm 4 m/S 715 mmHg 89%
    16:00 -1°C° 0 mm 3 m/S 714 mmHg 89%
    17:00 -1°C° 0 mm 3 m/S 714 mmHg 88%
    18:00 -4°C° 0 mm 3 m/S 714 mmHg 90%
    19:00 -4°C° 0 mm 2 m/S 714 mmHg 92%
    20:00 -6°C° 0 mm 2 m/S 714 mmHg 93%
    21:00 -6°C° 0 mm 1 m/S 714 mmHg 93%
    22:00 -6°C° 0 mm 1 m/S 714 mmHg 93%
    23:00 -7°C° 0 mm 1 m/S 713 mmHg 93%

    8 April, Mittwoch

    Zeit Temperatur Niederschläge Wind Luftdruck Luftfeuchtigkeit
    00:00 -8°C° 0 mm 1 m/S 713 mmHg 93%
    01:00 -8°C° 0 mm 1 m/S 713 mmHg 93%
    02:00 -9°C° 0 mm 1 m/S 712 mmHg 93%
    03:00 -9°C° 0 mm 1 m/S 712 mmHg 93%
    04:00 -10°C° 0 mm 1 m/S 712 mmHg 94%
    05:00 -10°C° 0 mm 1 m/S 712 mmHg 94%
    06:00 -8°C° 0 mm 1 m/S 712 mmHg 91%
    07:00 -6°C° 0 mm 1 m/S 712 mmHg 87%
    08:00 -3°C° 0 mm 1 m/S 712 mmHg 84%
    09:00 -2°C° 0 mm 1 m/S 711 mmHg 84%
    10:00 0°C° 0 mm 1 m/S 711 mmHg 83%
    11:00 +1°C° 0 mm 1 m/S 711 mmHg 82%
    12:00 +2°C° 0 mm 1 m/S 710 mmHg 84%
    13:00 +2°C° 0 mm 1 m/S 710 mmHg 86%
    14:00 +3°C° 0 mm 1 m/S 710 mmHg 87%
    15:00 +2°C° 0 mm 1 m/S 710 mmHg 89%
    16:00 +1°C° 0 mm 2 m/S 709 mmHg 90%
    17:00 -1°C° 0 mm 2 m/S 709 mmHg 91%
    18:00 -2°C° 0 mm 2 m/S 709 mmHg 92%
    19:00 -3°C° 0 mm 2 m/S 709 mmHg 93%
    20:00 -4°C° 0 mm 2 m/S 709 mmHg 94%
    21:00 -5°C° 0 mm 2 m/S 709 mmHg 94%
    22:00 -4°C° 0 mm 1 m/S 709 mmHg 94%
    23:00 -6°C° 0 mm 1 m/S 709 mmHg 94%
    Mehr zeigen